When you browse on this site, cookies collect data to enhance your experience and personalize the content and advertising you see.
Visit our Privacy Policy to learn more. By continuing to use the site, you agree to this use of cookies and data.
  • In Portugal
  • List of Countries
  • For 7 days
  • Water Temperature
  • Weather Map
  • Weather Widgets
  • user-avatar
    Login

    Hourly Weather Newcastle

    Today, 4 June, Thursday

    Time Temperature Precipitation Wind Pressure Humidity
    00:00 +9°C° 0 mm 6 mps 770 mmHg 79%
    01:00 +8°C° 0 mm 6 mps 770 mmHg 81%
    02:00 +8°C° 0.1 mm 6 mps 771 mmHg 80%
    03:00 +8°C° 0.1 mm 6 mps 771 mmHg 80%
    04:00 +8°C° 0 mm 5 mps 771 mmHg 81%
    05:00 +8°C° 0.2 mm 5 mps 771 mmHg 80%
    06:00 +8°C° 0.2 mm 5 mps 772 mmHg 78%
    07:00 +9°C° 0.2 mm 5 mps 772 mmHg 77%
    08:00 +10°C° 0.1 mm 5 mps 772 mmHg 74%
    09:00 +12°C° 0.1 mm 5 mps 773 mmHg 71%
    10:00 +13°C° 0 mm 5 mps 773 mmHg 68%
    11:00 +14°C° 0.1 mm 5 mps 772 mmHg 65%
    12:00 +15°C° 0.1 mm 5 mps 772 mmHg 63%
    13:00 +16°C° 0.1 mm 5 mps 771 mmHg 61%
    14:00 +15°C° 0.1 mm 5 mps 771 mmHg 64%
    15:00 +15°C° 0.1 mm 5 mps 771 mmHg 67%
    16:00 +14°C° 0 mm 5 mps 771 mmHg 71%
    17:00 +13°C° 0.1 mm 5 mps 772 mmHg 77%
    18:00 +12°C° 0.1 mm 4 mps 772 mmHg 83%
    19:00 +10°C° 0.1 mm 4 mps 772 mmHg 89%
    20:00 +10°C° 0 mm 3 mps 772 mmHg 90%
    21:00 +10°C° 0 mm 3 mps 773 mmHg 91%
    22:00 +9°C° 0 mm 3 mps 773 mmHg 92%
    23:00 +9°C° 0 mm 3 mps 772 mmHg 93%

    Tomorrow, 5 June, Friday

    Time Temperature Precipitation Wind Pressure Humidity
    00:00 +8°C° 0 mm 3 mps 772 mmHg 94%
    01:00 +8°C° 0 mm 3 mps 772 mmHg 95%
    02:00 +8°C° 0 mm 3 mps 772 mmHg 95%
    03:00 +7°C° 0 mm 2 mps 771 mmHg 95%
    04:00 +7°C° 0 mm 2 mps 771 mmHg 95%
    05:00 +7°C° 0 mm 2 mps 771 mmHg 95%
    06:00 +7°C° 0 mm 2 mps 772 mmHg 95%
    07:00 +6°C° 0 mm 2 mps 772 mmHg 95%
    08:00 +9°C° 0 mm 2 mps 772 mmHg 85%
    09:00 +12°C° 0 mm 2 mps 771 mmHg 76%
    10:00 +14°C° 0 mm 2 mps 771 mmHg 66%
    11:00 +16°C° 0 mm 2 mps 770 mmHg 60%
    12:00 +18°C° 0 mm 1 mps 770 mmHg 54%
    13:00 +19°C° 0 mm 1 mps 769 mmHg 47%
    14:00 +18°C° 0 mm 1 mps 768 mmHg 52%
    15:00 +18°C° 0 mm 1 mps 768 mmHg 56%
    16:00 +16°C° 0 mm 1 mps 768 mmHg 60%
    17:00 +15°C° 0 mm 2 mps 768 mmHg 66%
    18:00 +13°C° 0 mm 2 mps 768 mmHg 71%
    19:00 +10°C° 0 mm 2 mps 769 mmHg 76%
    20:00 +10°C° 0 mm 2 mps 769 mmHg 79%
    21:00 +9°C° 0 mm 2 mps 769 mmHg 81%
    22:00 +9°C° 0 mm 2 mps 769 mmHg 83%
    23:00 +8°C° 0 mm 2 mps 769 mmHg 83%

    Day after tomorrow, 6 June, Saturday

    Time Temperature Precipitation Wind Pressure Humidity
    00:00 +8°C° 0 mm 2 mps 768 mmHg 83%
    01:00 +8°C° 0 mm 2 mps 768 mmHg 83%
    02:00 +7°C° 0 mm 2 mps 768 mmHg 85%
    03:00 +7°C° 0 mm 2 mps 768 mmHg 87%
    04:00 +6°C° 0 mm 2 mps 767 mmHg 88%
    05:00 +6°C° 0 mm 2 mps 768 mmHg 89%
    06:00 +6°C° 0 mm 2 mps 768 mmHg 89%
    07:00 +6°C° 0 mm 2 mps 768 mmHg 90%
    08:00 +8°C° 0 mm 2 mps 768 mmHg 80%
    09:00 +12°C° 0 mm 2 mps 768 mmHg 71%
    10:00 +14°C° 0 mm 2 mps 767 mmHg 62%
    11:00 +15°C° 0 mm 1 mps 767 mmHg 59%
    12:00 +18°C° 0 mm 1 mps 766 mmHg 56%
    13:00 +19°C° 0 mm 1 mps 765 mmHg 53%
    14:00 +18°C° 0 mm 1 mps 765 mmHg 57%
    15:00 +18°C° 0 mm 1 mps 765 mmHg 60%
    16:00 +16°C° 0 mm 1 mps 764 mmHg 64%
    17:00 +14°C° 0 mm 1 mps 765 mmHg 68%
    18:00 +12°C° 0 mm 1 mps 765 mmHg 72%
    19:00 +11°C° 0 mm 1 mps 765 mmHg 76%
    20:00 +9°C° 0 mm 2 mps 765 mmHg 77%
    21:00 +9°C° 0 mm 2 mps 765 mmHg 79%
    22:00 +8°C° 0 mm 2 mps 765 mmHg 80%
    23:00 +8°C° 0 mm 2 mps 765 mmHg 80%

    7 June, Sunday

    Time Temperature Precipitation Wind Pressure Humidity
    00:00 +7°C° 0 mm 2 mps 765 mmHg 80%
    01:00 +7°C° 0 mm 2 mps 765 mmHg 81%
    02:00 +7°C° 0 mm 2 mps 765 mmHg 80%
    03:00 +7°C° 0 mm 3 mps 764 mmHg 80%
    04:00 +5°C° 0 mm 3 mps 764 mmHg 80%
    05:00 +5°C° 0 mm 3 mps 765 mmHg 82%
    06:00 +6°C° 0 mm 2 mps 765 mmHg 84%
    07:00 +5°C° 0 mm 2 mps 765 mmHg 85%
    08:00 +8°C° 0 mm 2 mps 765 mmHg 77%
    09:00 +10°C° 0 mm 2 mps 765 mmHg 69%
    10:00 +13°C° 0 mm 2 mps 765 mmHg 61%
    11:00 +14°C° 0 mm 2 mps 765 mmHg 59%
    12:00 +16°C° 0 mm 2 mps 764 mmHg 57%
    13:00 +17°C° 0 mm 2 mps 764 mmHg 55%
    14:00 +16°C° 0 mm 2 mps 764 mmHg 60%
    15:00 +16°C° 0 mm 2 mps 764 mmHg 65%
    16:00 +15°C° 0 mm 2 mps 764 mmHg 70%
    17:00 +14°C° 0.1 mm 2 mps 765 mmHg 76%
    18:00 +12°C° 0.1 mm 3 mps 766 mmHg 83%
    19:00 +10°C° 0.1 mm 3 mps 766 mmHg 90%
    20:00 +10°C° 0.9 mm 3 mps 767 mmHg 91%
    21:00 +10°C° 0.9 mm 3 mps 767 mmHg 93%
    22:00 +10°C° 0.9 mm 4 mps 767 mmHg 94%
    23:00 +10°C° 1.2 mm 4 mps 768 mmHg 94%

    8 June, Monday

    Time Temperature Precipitation Wind Pressure Humidity
    00:00 +10°C° 1.2 mm 4 mps 768 mmHg 93%
    01:00 +11°C° 1.2 mm 4 mps 768 mmHg 93%
    02:00 +10°C° 0.3 mm 4 mps 768 mmHg 93%
    03:00 +10°C° 0.3 mm 4 mps 768 mmHg 93%
    04:00 +8°C° 0.3 mm 4 mps 768 mmHg 94%
    05:00 +8°C° 0.1 mm 4 mps 769 mmHg 94%
    06:00 +7°C° 0.1 mm 4 mps 769 mmHg 94%
    07:00 +7°C° 0.1 mm 4 mps 770 mmHg 94%
    08:00 +8°C° 0 mm 4 mps 770 mmHg 90%
    09:00 +11°C° 0 mm 4 mps 770 mmHg 87%
    10:00 +12°C° 0 mm 4 mps 770 mmHg 83%
    11:00 +13°C° 0.1 mm 4 mps 770 mmHg 78%
    12:00 +15°C° 0.1 mm 4 mps 770 mmHg 73%
    13:00 +17°C° 0.1 mm 4 mps 769 mmHg 68%
    14:00 +15°C° 0.1 mm 4 mps 770 mmHg 71%
    15:00 +16°C° 0.1 mm 3 mps 770 mmHg 73%
    16:00 +16°C° 0.1 mm 3 mps 770 mmHg 76%
    17:00 +14°C° 0.1 mm 3 mps 771 mmHg 80%
    18:00 +13°C° 0.1 mm 3 mps 771 mmHg 84%
    19:00 +12°C° 0.1 mm 3 mps 772 mmHg 88%
    20:00 +12°C° 0 mm 3 mps 772 mmHg 89%
    21:00 +12°C° 0 mm 3 mps 772 mmHg 89%
    22:00 +11°C° 0 mm 3 mps 773 mmHg 89%
    23:00 +12°C° 0 mm 2 mps 773 mmHg 89%

    9 June, Tuesday

    Time Temperature Precipitation Wind Pressure Humidity
    00:00 +12°C° 0 mm 2 mps 773 mmHg 89%
    01:00 +12°C° 0 mm 2 mps 773 mmHg 89%
    02:00 +12°C° 0 mm 2 mps 773 mmHg 90%
    03:00 +10°C° 0 mm 2 mps 772 mmHg 90%
    04:00 +10°C° 0 mm 2 mps 772 mmHg 91%
    05:00 +11°C° 0 mm 1 mps 773 mmHg 91%
    06:00 +11°C° 0 mm 1 mps 773 mmHg 91%
    07:00 +12°C° 0 mm 1 mps 774 mmHg 91%
    08:00 +12°C° 0.1 mm 1 mps 774 mmHg 89%
    09:00 +13°C° 0.1 mm 1 mps 774 mmHg 88%
    10:00 +13°C° 0.1 mm 1 mps 774 mmHg 87%
    11:00 +14°C° 0 mm 1 mps 773 mmHg 82%
    12:00 +15°C° 0 mm 1 mps 773 mmHg 78%
    13:00 +18°C° 0 mm 1 mps 772 mmHg 74%
    14:00 +16°C° 0 mm 1 mps 772 mmHg 75%
    15:00 +16°C° 0 mm 2 mps 772 mmHg 76%
    16:00 +16°C° 0 mm 2 mps 772 mmHg 78%
    17:00 +15°C° 0 mm 2 mps 772 mmHg 81%
    18:00 +15°C° 0 mm 2 mps 773 mmHg 85%
    19:00 +14°C° 0 mm 2 mps 773 mmHg 89%
    20:00 +13°C° 0 mm 2 mps 773 mmHg 90%
    21:00 +13°C° 0 mm 2 mps 773 mmHg 91%
    22:00 +13°C° 0 mm 2 mps 773 mmHg 92%
    23:00 +13°C° 0 mm 2 mps 773 mmHg 93%
    Show more